Theta_e
321 325 326 327 330 327 328 329 330 331 330 329 331 334 344 344 347 348 348 350 349 349 348 348 348 347 349 349 347 346 338 331
322 323 324 324 326 329 329 332 334 331 333 332 332 334 339 344 342 342 342 350 350 349 349 350 349 349 349 351 350 348 346 334
321 321 321 322 322 325 329 331 332 332 332 335 338 334 336 345 343 340 344 347 340 349 350 350 351 351 350 351 353 351 350 347
318 320 320 319 320 320 322 331 331 331 331 332 335 334 333 331 334 345 346 344 346 347 348 351 352 352 352 351 353 354 352 351
317 318 318 318 317 318 319 321 327 332 332 332 333 336 332 331 330 334 346 347 338 343 347 351 351 352 353 353 352 355 356 354
318 318 318 318 318 317 317 322 323 324 329 334 332 335 335 334 334 332 334 341 345 350 351 353 352 352 353 353 353 353 356 355
315 315 316 316 316 317 317 318 322 324 325 330 328 330 332 333 333 334 335 333 337 341 347 355 354 353 353 353 353 353 353 354
315 315 316 317 316 316 317 317 317 319 322 324 324 326 328 330 330 329 331 336 337 337 349 353 354 354 354 353 354 353 352 353
316 314 315 317 317 316 316 316 317 317 320 321 321 322 324 324 325 325 327 334 336 338 341 345 355 355 355 354 354 354 352 353
318 316 319 317 317 317 315 316 316 316 317 318 318 316 316 318 320 322 323 336 346 338 342 345 347 345 357 357 355 355 353 353
318 317 315 314 315 315 317 316 315 316 317 316 316 316 318 318 317 319 323 331 348 348 347 345 345 347 355 357 357 355 356 353
318 317 316 314 314 313 314 315 315 314 314 315 315 318 321 318 319 320 330 346 347 348 349 348 340 345 346 355 357 357 355 357
318 318 314 313 313 313 314 314 315 316 316 316 318 320 321 323 319 333 339 339 347 348 350 339 338 346 348 348 354 357 357 357
318 318 317 314 314 315 315 314 313 312 312 314 314 315 321 323 328 336 339 340 343 347 347 347 355 355 348 348 349 354 360 358
312 316 312 310 311 311 311 311 310 310 311 313 314 317 322 330 333 334 332 335 341 344 349 361 361 362 355 349 345 352 355 360
309 311 309 308 307 307 308 308 308 309 310 313 315 320 328 328 327 327 331 337 342 347 350 343 346 356 362 353 352 354 357 358
308 307 305 307 306 306 306 307 307 309 313 314 317 325 324 324 323 325 328 334 338 342 346 349 353 354 357 356 360 357 359 358
308 305 303 304 304 303 306 310 310 313 314 316 318 322 321 319 321 323 325 328 332 339 342 347 351 355 357 357 362 360 362 361
306 305 305 303 303 302 306 309 312 313 313 313 317 322 321 318 318 319 321 322 326 329 335 339 346 351 356 359 361 364 364 362
Wind_Speed
23 17 18 21 20 22 23 20 17 17 18 24 21 21 14 21 30 38 19 25 42 43 46 48 47 49 48 48 45 43 43 44
9 5 9 14 14 14 15 22 23 18 20 14 20 18 14 14 19 25 27 27 26 40 42 44 48 46 46 44 47 45 43 46
9 9 14 13 16 14 14 13 19 16 16 17 13 22 19 20 27 34 50 42 13 17 38 43 44 44 47 45 44 46 44 44
19 13 14 16 20 18 13 17 15 14 17 22 17 14 17 19 19 38 37 38 41 37 34 46 46 46 46 47 45 47 47 43
16 15 18 13 17 18 19 18 22 15 14 22 15 15 10 15 18 11 43 48 46 32 59 51 49 46 45 46 48 43 43 44
13 10 14 11 16 18 19 15 15 20 23 20 13 19 24 25 23 12 14 49 45 45 34 44 47 46 44 44 44 44 41 42
20 22 18 18 18 21 24 23 21 18 23 22 18 17 21 28 30 31 19 19 22 24 32 59 48 46 45 41 44 42 43 43
21 21 21 23 20 20 20 17 22 20 25 24 17 13 23 24 28 35 39 30 10 12 27 41 46 48 48 46 43 44 44 47
20 19 20 23 20 20 19 19 15 17 23 21 18 15 23 28 29 33 41 49 15 11 11 18 30 47 49 50 46 45 44 43
12 15 13 16 19 23 23 23 20 21 23 24 22 26 31 32 30 35 39 44 17 12 13 6 24 23 37 42 44 44 46 43
9 12 17 22 16 18 13 19 19 12 16 29 28 28 35 34 28 33 36 39 18 11 13 15 15 6 27 34 41 44 44 49
12 13 17 22 21 9 10 14 15 19 19 25 31 15 17 33 31 31 24 18 15 13 13 17 22 20 18 28 35 45 49 48
12 15 13 18 20 4 10 15 17 19 22 25 18 28 47 47 43 20 13 30 18 17 15 18 23 26 27 24 34 42 45 44
8 10 14 20 15 9 11 17 16 23 28 30 37 45 54 49 30 16 11 16 15 16 16 17 25 28 34 37 28 38 39 43
4 5 17 22 16 23 22 24 34 27 34 33 37 46 55 22 12 10 11 15 16 13 11 14 18 22 32 41 42 26 40 41
6 4 19 27 31 26 27 30 34 33 33 34 33 47 11 7 4 6 8 11 11 10 14 21 23 14 27 30 40 38 37 43
7 16 18 12 17 24 25 24 30 33 28 26 30 9 10 9 3 1 5 2 4 5 9 14 16 17 19 27 30 34 36 43
4 17 15 18 22 18 35 22 23 17 19 20 18 9 14 13 13 12 10 7 4 5 4 4 10 12 14 20 23 33 38 38
6 20 11 21 16 22 23 21 6 10 7 15 10 15 15 15 8 9 13 12 9 7 3 4 6 8 13 15 20 24 30 33
Wind_Direction
211 201 226 246 219 240 261 254 249 251 227 230 243 242 182 151 170 180 263 230 185 188 192 193 194 195 196 200 212 215 211 215
175 260 231 250 282 240 227 252 265 262 259 242 207 221 197 155 145 178 215 260 187 184 194 198 197 198 196 201 210 216 217 215
277 191 240 236 257 257 277 262 247 257 259 271 227 204 209 183 168 164 198 209 267 264 199 201 199 198 199 200 206 211 215 217
263 260 192 256 272 251 243 245 269 264 250 263 10 200 207 228 228 193 177 183 190 237 253 194 198 198 200 201 204 211 215 215
266 266 257 237 250 253 267 241 251 247 246 261 292 349 208 206 223 248 166 174 179 189 230 192 192 195 198 201 204 208 206 210
268 268 346 296 261 253 271 248 249 248 260 273 355 18 1 2 353 307 229 180 189 188 198 184 188 191 195 201 203 205 210 209
281 292 296 287 286 287 233 253 254 253 246 259 54 357 322 320 340 337 307 242 254 236 177 207 185 188 194 199 202 204 206 210
276 282 281 278 260 262 278 258 252 261 271 278 335 355 308 306 327 330 315 310 311 331 204 186 183 189 192 196 202 202 206 211
266 262 269 259 254 259 261 263 272 263 267 286 305 312 299 306 316 319 322 318 275 299 297 236 202 190 191 198 198 203 207 211
266 283 260 255 268 272 248 258 257 263 271 283 287 291 289 291 299 301 311 314 343 258 281 123 206 215 197 197 195 203 205 211
246 250 269 276 267 260 317 261 259 311 308 297 293 300 292 288 282 284 290 298 309 308 296 281 293 249 199 195 203 204 212 211
232 244 249 252 255 17 342 272 277 285 289 290 298 286 280 288 299 286 283 288 303 302 300 291 262 268 253 212 206 210 212 217
245 245 253 262 272 119 234 268 320 327 312 305 299 281 280 290 288 281 270 282 291 289 284 276 269 252 254 247 213 220 223 213
238 245 261 5 315 249 322 307 305 305 302 294 287 288 284 292 265 269 272 275 289 287 282 276 274 264 240 238 234 224 217 215
305 307 314 308 307 300 301 293 290 296 289 289 286 284 284 244 236 256 268 266 265 280 288 284 271 253 246 231 226 233 216 215
325 329 321 311 310 304 283 274 288 285 276 279 282 289 209 162 155 244 267 257 258 254 251 262 269 252 232 251 235 232 221 214
253 280 306 296 312 307 300 287 271 272 259 263 277 219 134 119 92 104 70 115 180 189 243 257 254 237 225 225 223 228 223 211
286 303 292 292 313 314 306 286 263 263 267 266 278 163 126 115 83 71 57 73 103 149 146 187 232 222 221 218 204 208 204 197
311 327 302 321 323 343 347 3 353 358 31 8 19 107 117 100 105 49 47 38 58 56 103 109 141 205 215 210 194 191 195 196